Location: Prague
(50.0830°N, 14.4670°E)
Time: 19:25:46
(UTC+02:00)

X-37B - Pass Details

Date: 01 October 2021
Orbit: 385 x 389 km, 45.0° (Epoch: 13 October)

Event Time Altitude Azimuth Distance (km) Brightness Sun altitude
Exits shadow 04:43:46 19° 134° (SE) 1,007 2.9 -22.5°
Drops below altitude 10° 04:44:57 10° 121° (ESE) 1,412 3.9 -22.3°
Sets 04:47:08 0° 111° (ESE) 2,266 5.2 -22.0°
